Temperature
15 16 16 15 15 15 14 14 14 14 15 16 15 14 14 14 13 13 13 12 11 11 10 10 9 9 9 8 8 8 7 7 7 7 7 6 6 6 5 5 5 4 3 2
13 14 15 14 15 15 14 14 14 14 14 15 14 14 13 13 12 12 12 11 10 10 9 9 8 8 7 7 7 7 6 6 6 6 5 5 5 4 4 4 3 3 2 2
11 13 13 12 14 15 15 15 15 14 14 13 12 12 12 12 12 11 10 10 9 9 8 8 7 7 7 6 6 6 6 5 5 4 4 4 4 3 3 2 2 2 1 1
10 11 9 13 16 16 15 15 14 13 13 12 12 12 12 12 10 10 9 9 8 8 7 7 6 6 6 6 5 5 5 4 4 4 3 3 3 2 2 1 1 1 0 -0
9 9 11 14 14 14 13 13 13 12 12 12 11 10 11 11 9 8 8 8 7 7 6 6 6 5 5 5 4 4 3 3 3 3 2 2 2 1 1 1 0 0 -0 -1
9 8 8 13 13 13 12 11 11 11 10 10 9 7 8 9 8 8 7 7 6 6 6 5 5 5 4 4 3 3 2 2 2 2 1 1 1 0 0 0 -0 -1 -1 -1
8 8 9 13 12 12 11 10 11 11 10 9 8 7 8 7 7 7 6 6 5 5 5 4 4 3 3 3 2 2 1 1 1 1 1 0 -0 -0 -0 -1 -1 -1 -2 -2
8 8 9 12 12 11 10 11 10 9 9 8 8 7 7 6 6 6 5 5 5 4 4 4 3 2 2 1 1 1 1 1 0 0 -0 -0 -1 -1 -1 -1 -2 -2 -2 -3
10 10 13 13 12 11 10 9 8 8 7 7 6 6 6 5 5 5 4 4 4 3 3 3 2 1 1 1 0 0 -0 -0 -0 -0 -1 -1 -1 -1 -2 -2 -2 -3 -3 -3
10 11 12 12 11 10 9 8 7 7 6 6 5 5 4 4 4 4 4 3 3 2 2 2 1 1 0 -0 -0 -0 -1 -1 -1 -1 -1 -1 -2 -2 -2 -3 -3 -3 -3 -4
9 10 11 10 9 8 7 6 6 5 5 4 4 4 4 3 3 3 3 2 2 1 1 1 0 -0 -0 -1 -1 -1 -1 -1 -1 -2 -2 -2 -2 -3 -3 -3 -3 -4 -4 -4
8 8 7 7 7 6 5 5 4 4 4 4 3 3 3 3 2 2 2 2 1 1 0 -0 -0 -0 -1 -1 -1 -1 -2 -2 -2 -2 -2 -2 -3 -3 -3 -3 -3 -4 -4 -5
7 7 6 6 5 5 4 4 4 3 3 3 3 2 2 2 2 1 1 1 0 0 -0 -0 -1 -1 -1 -1 -2 -2 -2 -2 -2 -2 -3 -3 -3 -3 -3 -3 -4 -4 -4 -5
6 6 5 5 4 4 4 3 3 3 3 2 2 2 1 1 1 1 0 0 -0 -0 -1 -1 -1 -1 -1 -2 -2 -2 -2 -2 -3 -3 -3 -3 -3 -4 -4 -4 -4 -4 -4 -5
5 4 4 4 4 3 3 3 2 2 2 2 2 1 1 0 0 0 0 -0 -1 -1 -1 -1 -1 -1 -2 -2 -2 -3 -3 -3 -3 -3 -3 -3 -4 -4 -4 -4 -5 -5 -5 -5
4 4 4 3 3 3 3 2 2 2 2 1 1 1 0 0 -0 -0 -0 -1 -1 -1 -2 -2 -2 -2 -2 -2 -3 -3 -3 -3 -3 -3 -3 -4 -4 -4 -4 -5 -5 -5 -5 -6
3 3 3 3 3 2 2 2 2 1 1 1 0 0 0 -0 -0 -1 -1 -1 -2 -2 -2 -2 -2 -3 -3 -3 -3 -3 -3 -3 -3 -4 -4 -4 -4 -5 -5 -5 -5 -5 -6 -6
3 3 3 2 2 2 2 1 1 1 0 0 0 -0 -0 -1 -1 -1 -2 -2 -3 -3 -2 -3 -3 -3 -3 -3 -3 -3 -3 -4 -4 -4 -4 -5 -5 -5 -5 -5 -5 -6 -6 -6
3 3 2 2 2 1 1 1 1 0 0 0 -0 -1 -1 -1 -2 -2 -3 -3 -3 -3 -3 -3 -3 -3 -3 -3 -4 -4 -4 -4 -4 -4 -5 -5 -5 -5 -5 -5 -6 -6 -6 -7
2 2 2 1 1 1 1 1 0 0 -0 -0 -1 -1 -1 -2 -2 -3 -3 -4 -4 -4 -4 -4 -4 -4 -4 -4 -4 -4 -4 -4 -5 -5 -5 -5 -5 -5 -5 -6 -6 -6 -7 -7
2 1 1 1 1 1 0 0 -0 -0 -1 -1 -1 -2 -2 -2 -3 -4 -4 -4 -4 -4 -4 -4 -4 -4 -4 -4 -4 -4 -4 -5 -5 -5 -5 -5 -5 -5 -6 -6 -6 -7 -7 -7
1 1 1 1 0 0 -0 -0 -1 -1 -1 -1 -2 -2 -3 -3 -4 -4 -4 -5 -5 -5 -5 -5 -5 -5 -5 -5 -5 -5 -5 -5 -5 -5 -5 -5 -5 -6 -6 -6 -7 -7 -7 -8
1 1 0 0 -0 -1 -1 -1 -1 -1 -2 -2 -2 -3 -3 -4 -4 -5 -5 -5 -5 -5 -5 -5 -5 -5 -5 -5 -5 -5 -5 -5 -6 -5 -5 -6 -6 -6 -6 -7 -7 -7 -8 -8
0 0 -0 -1 -1 -1 -1 -1 -2 -2 -2 -3 -3 -3 -4 -5 -5 -5 -5 -5 -5 -5 -5 -5 -5 -5 -5 -5 -5 -5 -6 -6 -6 -6 -6 -6 -6 -6 -7 -7 -7 -8 -8 -8
-0 -0 -1 -1 -1 -2 -2 -2 -2 -3 -3 -3 -4 -4 -4 -5 -5 -5 -6 -6 -6 -6 -6 -5 -5 -5 -5 -5 -6 -6 -6 -6 -6 -6 -6 -6 -6 -7 -7 -7 -8 -8 -8 -8
-1 -1 -2 -2 -2 -2 -3 -3 -3 -3 -4 -4 -4 -4 -5 -5 -5 -6 -6 -6 -6 -6 -6 -6 -6 -6 -6 -6 -6 -6 -6 -6 -6 -6 -6 -6 -7 -7 -7 -7 -8 -8 -8 -8
-2 -2 -2 -2 -3 -3 -3 -4 -4 -4 -4 -5 -5 -5 -5 -6 -6 -6 -6 -6 -6 -6 -6 -6 -6 -6 -6 -6 -6 -6 -6 -6 -6 -6 -6 -7 -7 -7 -7 -8 -8 -8 -8 -8
Wind_Speed
13 14 13 15 17 14 14 15 17 20 21 20 11 7 7 9 9 9 8 8 8 9 9 9 10 10 9 10 9 8 9 10 11 11 11 11 11 11 11 11 12 12 12 13
12 13 14 18 20 18 17 16 17 19 18 7 5 7 8 10 11 10 9 9 10 11 11 11 11 11 10 10 10 9 10 11 12 12 12 11 11 11 11 11 11 11 12 13
7 8 11 11 12 12 8 8 9 11 7 5 7 8 9 10 10 9 10 11 11 11 11 11 11 11 11 10 10 10 11 12 13 13 12 11 11 10 11 11 11 11 12 12
5 6 9 10 6 5 5 6 7 7 6 7 7 8 8 8 9 11 12 12 11 11 11 10 10 11 11 10 11 11 12 13 13 11 11 11 11 11 11 10 10 11 11 11
3 6 11 10 5 4 4 5 5 5 7 9 10 10 7 8 10 11 11 11 11 10 11 11 12 11 11 11 12 12 14 13 12 11 12 12 12 13 11 11 11 10 9 10
5 5 7 6 2 3 4 4 6 8 9 10 11 10 8 10 11 12 11 10 11 11 11 12 12 11 12 14 14 14 14 12 12 12 13 13 14 13 11 10 11 10 9 9
7 7 9 4 2 2 2 4 6 8 9 9 8 8 11 12 12 11 11 11 11 12 11 11 12 12 14 15 15 14 13 13 12 12 13 14 13 12 11 10 10 9 10 9
6 7 8 1 2 1 5 8 9 9 9 10 10 11 12 12 12 12 11 11 12 12 12 12 12 13 16 16 16 15 14 14 13 12 12 12 13 12 11 10 10 10 9 9
6 7 4 4 5 6 7 8 8 9 10 10 11 12 12 11 11 11 11 11 11 13 14 13 12 13 17 18 16 15 14 14 13 13 12 12 12 13 11 9 9 8 7 8
7 7 8 9 9 9 10 10 10 10 10 10 11 12 13 12 11 12 11 12 12 13 16 17 15 14 15 17 16 15 15 14 13 13 13 12 10 9 9 9 9 9 8 8
12 11 10 7 10 11 11 11 11 10 10 10 11 12 12 12 12 11 12 12 12 13 16 18 17 16 15 15 15 15 15 14 13 12 13 12 11 10 11 9 10 10 8 7
9 7 7 9 10 11 10 10 10 10 10 10 10 11 12 12 11 12 14 14 14 14 16 18 18 17 15 14 14 15 14 13 12 11 11 11 12 12 13 14 18 18 17 15
6 8 8 9 9 8 8 9 8 8 9 11 10 11 12 12 11 12 14 15 16 17 17 18 17 17 15 14 13 14 15 15 13 12 12 12 11 12 12 12 14 16 17 17
7 7 7 7 8 8 8 8 8 9 10 10 11 12 13 13 14 16 17 16 17 18 17 16 17 18 16 15 14 14 14 16 15 12 12 12 11 11 11 11 11 8 10 15
5 5 6 8 8 8 7 8 10 10 11 11 11 12 14 15 17 18 18 17 16 16 16 17 19 19 17 15 14 15 14 13 13 12 12 12 11 11 10 10 10 9 7 7
6 6 7 7 8 9 9 10 11 12 13 13 14 15 15 16 18 18 17 15 15 17 18 18 18 19 16 14 14 14 13 19 18 13 12 11 10 10 10 9 9 8 7 6
5 6 7 8 9 10 10 11 12 13 14 16 17 17 17 17 18 18 17 14 14 16 17 17 18 16 14 14 14 13 13 14 19 14 11 11 10 10 9 9 8 8 6 7
5 6 7 8 10 12 13 13 13 14 15 16 17 16 16 17 18 20 18 17 17 18 17 15 15 15 15 15 14 12 12 11 11 12 11 10 10 9 8 8 8 8 6 6
6 8 9 11 11 12 13 15 15 15 15 15 15 15 16 17 17 18 17 18 19 20 17 13 21 18 15 16 17 11 11 12 12 11 10 13 12 8 8 7 7 6 5 4
9 10 11 13 13 13 14 14 15 15 14 13 14 16 18 18 16 17 18 17 14 14 15 18 17 14 14 14 18 11 11 12 12 11 10 9 9 8 7 7 6 5 4 4
11 12 13 14 14 13 13 13 13 15 15 14 15 17 18 18 16 15 16 17 14 13 15 21 15 13 13 15 18 11 11 11 11 10 10 9 9 8 7 6 5 4 3 3
10 11 13 13 13 14 12 11 13 16 16 16 15 15 16 17 16 15 13 13 15 20 16 12 12 18 21 22 11 10 10 11 10 9 9 8 8 7 7 6 4 3 3 2
11 12 13 13 14 15 15 14 14 14 15 16 16 16 16 16 14 14 16 12 11 21 17 12 20 28 28 16 9 10 10 10 10 9 8 8 7 6 6 5 3 2 2 1
12 13 12 13 12 14 16 16 13 12 13 14 13 13 14 13 12 10 11 19 23 25 15 18 27 27 23 11 9 10 10 9 9 8 7 7 6 5 4 3 3 2 1 1
12 12 12 12 12 12 13 13 12 12 12 11 11 11 10 9 12 13 13 14 21 22 14 18 25 24 15 10 10 10 9 9 9 8 7 6 5 4 3 3 2 1 1 0
12 11 11 11 11 11 10 10 10 10 10 11 11 10 9 9 11 12 12 13 15 20 16 12 13 15 10 10 10 10 9 9 9 7 6 5 4 3 3 2 1 1 1 0
12 11 9 9 9 8 8 9 10 10 10 11 13 12 11 11 11 12 13 12 12 12 12 12 11 10 10 10 10 9 8 7 7 6 5 4 3 2 2 1 1 1 0 1
Wind_Direction
272 285 291 286 281 273 261 259 265 274 280 290 314 355 9 1 351 339 329 334 340 335 327 321 320 319 319 315 311 311 307 299 291 286 282 277 274 270 266 261 258 252 248 244
276 277 280 279 274 270 267 263 264 273 280 301 18 16 0 349 334 324 329 339 337 329 323 321 319 317 315 311 308 308 303 296 293 289 285 279 275 273 270 267 262 256 251 247
279 299 306 277 261 255 242 243 261 276 297 5 6 4 348 327 320 329 340 336 328 323 320 318 315 313 311 306 307 306 299 295 293 290 287 283 281 280 276 272 266 260 255 249
286 310 252 247 277 275 272 283 301 309 347 14 1 343 320 316 343 345 337 329 323 319 316 312 310 309 306 308 308 304 299 295 293 294 295 295 293 288 284 278 271 266 261 254
251 267 276 272 297 343 326 304 352 357 357 351 341 329 318 352 357 335 325 321 317 315 313 312 310 310 313 311 307 303 299 297 299 302 302 300 296 290 287 283 277 270 265 258
228 241 256 278 60 18 351 288 25 10 351 342 346 328 316 343 334 324 320 317 315 313 311 311 311 316 316 310 306 302 300 301 303 303 301 298 294 292 289 283 279 277 272 262
237 246 263 302 105 20 294 303 357 352 342 340 327 301 311 325 322 317 314 314 314 313 311 309 313 317 310 306 302 302 303 303 301 298 296 295 295 293 290 286 282 279 275 268
206 223 256 90 47 341 305 336 347 348 345 333 319 315 317 318 317 316 315 314 314 313 309 309 312 312 307 304 303 303 302 301 300 298 298 300 297 295 291 288 285 282 279 276
213 228 288 25 351 340 354 349 350 344 336 328 320 317 318 317 315 313 312 312 313 312 310 309 309 307 304 304 305 305 304 302 301 301 299 298 297 296 295 289 284 282 279 279
279 286 319 334 344 356 359 350 344 339 331 328 319 317 314 313 312 312 311 313 312 311 310 309 308 303 300 303 305 305 304 303 303 303 301 299 294 290 289 287 283 281 278 277
285 297 311 332 355 355 350 345 338 331 326 322 316 312 312 312 312 313 312 307 306 306 305 306 307 306 305 306 307 306 305 304 303 301 300 300 294 288 285 275 276 281 275 267
287 331 329 328 348 353 343 335 329 324 321 320 315 311 311 310 308 308 307 306 306 304 304 306 307 306 307 308 308 308 307 305 303 302 301 298 296 294 284 280 287 284 279 275
334 345 332 327 341 345 330 325 325 323 317 313 311 310 309 307 305 304 304 305 305 305 304 304 306 307 310 311 309 305 303 304 304 301 300 298 297 297 299 295 287 286 284 281
345 342 325 329 323 322 322 320 316 311 306 304 306 308 307 305 304 304 304 304 303 302 303 305 308 308 310 310 307 303 302 303 303 299 297 296 295 293 293 295 297 289 285 283
341 332 307 307 312 315 314 312 309 305 302 303 303 303 303 303 302 302 302 302 302 304 307 309 308 307 309 307 305 304 303 303 301 298 296 294 293 292 290 288 288 288 286 281
318 310 301 305 308 309 309 307 305 302 303 304 304 302 300 298 297 298 300 304 309 309 308 307 305 305 306 306 306 305 303 302 305 303 301 299 298 296 293 291 290 287 284 278
294 297 301 305 305 304 303 301 299 300 302 302 301 300 300 300 302 304 306 306 302 301 302 302 301 302 304 305 304 305 304 305 307 306 303 301 298 294 292 291 289 287 281 276
263 273 285 290 294 298 299 299 297 297 297 295 297 299 302 306 307 306 307 308 308 306 303 298 297 303 304 305 304 304 305 306 306 303 302 300 298 294 292 290 288 288 288 284
284 287 289 290 291 292 293 295 295 293 293 296 300 303 304 302 301 303 307 308 308 307 306 302 306 310 306 306 308 304 305 305 305 304 302 303 303 298 295 292 290 287 284 277
282 284 287 288 288 285 286 288 291 296 300 304 303 303 302 302 303 304 305 302 298 295 298 305 309 307 306 306 309 306 305 305 305 305 304 304 303 302 298 295 291 286 280 272
279 282 284 285 287 286 287 293 301 303 303 302 299 298 299 301 302 303 304 304 302 299 305 310 313 308 309 311 312 309 307 306 305 304 305 307 306 304 301 297 292 286 281 273
279 284 287 292 295 296 297 299 298 298 299 298 295 296 299 302 304 302 294 295 301 307 312 308 308 308 314 314 310 309 307 306 306 306 306 307 306 305 304 302 298 293 284 269
290 291 294 295 295 296 297 295 292 291 292 293 296 298 298 298 301 303 305 305 306 310 314 307 310 314 316 318 311 309 306 306 307 308 309 308 305 303 303 303 300 292 282 268
288 287 286 287 289 291 293 292 289 287 286 288 288 288 292 299 301 297 297 308 314 312 311 310 314 318 321 319 311 308 306 306 307 308 309 306 304 305 306 305 302 295 284 273
283 283 283 285 286 286 286 290 293 292 290 291 291 290 289 293 300 306 306 308 312 314 312 313 315 318 319 311 310 308 308 306 308 311 309 308 309 309 306 305 302 302 303 287
282 282 281 278 279 283 286 289 290 293 297 300 301 300 300 302 302 304 306 306 306 311 314 310 312 314 314 311 310 309 309 310 311 312 309 309 309 308 311 316 320 324 322 297
282 282 283 284 281 278 281 285 290 295 298 300 302 304 305 306 305 306 307 309 311 311 311 311 313 312 310 310 310 310 309 309 310 310 310 310 309 310 317 326 338 356 36 74
Height
1510 1505 1503 1502 1500 1498 1499 1497 1498 1486 1481 1473 1471 1470 1469 1468 1467 1465 1464 1462 1460 1457 1454 1450 1447 1443 1438 1434 1429 1424 1419 1414 1409 1404 1399 1394 1389 1384 1379 1375 1370 1366 1363 1360
1511 1505 1502 1498 1491 1489 1488 1486 1483 1479 1475 1470 1469 1468 1468 1467 1466 1464 1461 1459 1456 1453 1450 1446 1441 1437 1432 1427 1423 1418 1412 1406 1401 1395 1390 1385 1380 1375 1370 1365 1361 1357 1352 1349
1514 1504 1503 1500 1483 1479 1478 1475 1476 1477 1473 1468 1468 1468 1468 1467 1465 1462 1459 1456 1453 1450 1446 1441 1436 1431 1426 1421 1416 1410 1404 1398 1393 1387 1381 1376 1371 1366 1361 1355 1351 1347 1343 1339
1517 1511 1516 1489 1472 1471 1471 1471 1471 1470 1469 1469 1469 1468 1468 1466 1463 1460 1457 1453 1449 1445 1440 1436 1431 1426 1420 1415 1409 1403 1397 1391 1386 1380 1374 1369 1363 1358 1352 1347 1342 1337 1333 1330
1518 1515 1499 1481 1474 1472 1474 1473 1471 1470 1470 1469 1467 1465 1464 1463 1461 1458 1454 1450 1445 1441 1435 1430 1425 1420 1414 1408 1402 1396 1390 1384 1379 1373 1367 1361 1355 1349 1344 1338 1333 1329 1325 1322
1514 1516 1510 1483 1476 1473 1476 1477 1473 1471 1470 1469 1466 1467 1463 1461 1458 1454 1450 1446 1441 1436 1431 1425 1420 1414 1407 1400 1394 1388 1383 1377 1372 1366 1360 1353 1347 1341 1336 1331 1325 1321 1317 1314
1514 1511 1495 1477 1476 1475 1483 1480 1473 1471 1470 1468 1467 1466 1460 1456 1453 1449 1445 1441 1436 1431 1425 1420 1414 1407 1400 1393 1387 1382 1376 1370 1364 1359 1353 1346 1340 1334 1329 1323 1318 1313 1309 1306
1506 1507 1498 1477 1476 1479 1479 1474 1471 1469 1468 1466 1463 1460 1456 1452 1448 1444 1440 1435 1431 1425 1419 1414 1408 1401 1392 1386 1380 1374 1368 1362 1356 1351 1345 1339 1333 1327 1322 1316 1311 1306 1302 1298
1488 1487 1476 1475 1475 1475 1474 1472 1470 1468 1466 1463 1459 1455 1452 1448 1443 1439 1435 1430 1425 1419 1412 1406 1400 1394 1386 1379 1373 1367 1360 1354 1348 1343 1337 1332 1326 1320 1314 1310 1305 1299 1295 1291
1481 1475 1474 1475 1474 1473 1472 1470 1468 1465 1463 1460 1456 1452 1448 1443 1439 1434 1429 1425 1419 1412 1405 1397 1392 1387 1380 1373 1367 1360 1353 1347 1341 1335 1329 1324 1319 1313 1308 1303 1298 1294 1289 1286
1479 1476 1474 1473 1473 1471 1469 1467 1464 1461 1459 1456 1452 1448 1444 1439 1434 1429 1424 1418 1412 1406 1398 1391 1384 1378 1373 1367 1360 1353 1346 1340 1334 1328 1322 1316 1311 1307 1301 1297 1293 1288 1284 1281
1478 1477 1476 1473 1472 1469 1467 1464 1461 1458 1455 1452 1449 1444 1439 1434 1429 1424 1418 1411 1405 1398 1391 1384 1378 1371 1366 1360 1354 1346 1339 1333 1327 1321 1315 1309 1303 1298 1294 1290 1286 1282 1279 1276
1476 1474 1473 1471 1469 1467 1464 1461 1458 1455 1452 1448 1444 1440 1435 1429 1424 1418 1411 1405 1398 1391 1385 1378 1371 1365 1359 1353 1347 1340 1333 1326 1320 1314 1308 1302 1297 1291 1285 1281 1279 1275 1272 1269
1474 1472 1470 1469 1467 1464 1461 1458 1455 1451 1448 1444 1440 1435 1430 1423 1417 1411 1405 1398 1392 1385 1378 1371 1364 1358 1352 1346 1339 1333 1327 1320 1314 1307 1302 1296 1291 1286 1280 1275 1271 1267 1266 1263
1471 1470 1469 1466 1463 1461 1458 1454 1451 1446 1442 1438 1434 1429 1423 1417 1410 1403 1397 1391 1384 1378 1371 1364 1357 1350 1345 1338 1332 1326 1320 1313 1307 1301 1295 1290 1285 1280 1275 1270 1266 1262 1259 1257
1468 1466 1465 1463 1460 1457 1454 1450 1446 1442 1437 1432 1427 1421 1416 1410 1403 1396 1390 1384 1378 1370 1363 1356 1349 1343 1338 1332 1325 1319 1313 1307 1301 1295 1289 1284 1279 1274 1269 1265 1261 1257 1255 1253
1465 1463 1461 1459 1456 1453 1450 1446 1442 1437 1432 1426 1420 1414 1408 1402 1395 1388 1382 1377 1370 1363 1356 1350 1342 1336 1331 1325 1319 1312 1306 1300 1294 1289 1283 1278 1273 1268 1264 1260 1257 1253 1251 1249
1462 1460 1458 1456 1452 1448 1444 1440 1436 1431 1425 1419 1414 1407 1401 1395 1388 1380 1374 1367 1360 1353 1348 1343 1336 1330 1324 1318 1312 1306 1300 1294 1288 1282 1277 1272 1268 1263 1259 1256 1252 1249 1246 1244
1458 1456 1454 1451 1448 1444 1439 1434 1429 1424 1418 1413 1407 1401 1394 1388 1381 1374 1367 1360 1352 1345 1339 1335 1330 1323 1317 1311 1306 1300 1294 1288 1282 1277 1272 1267 1263 1259 1255 1251 1248 1245 1243 1240
1454 1451 1448 1445 1441 1438 1433 1428 1422 1417 1412 1407 1400 1393 1386 1379 1373 1366 1359 1353 1347 1341 1334 1328 1323 1316 1310 1305 1300 1294 1288 1282 1276 1272 1267 1263 1259 1255 1251 1247 1244 1241 1239 1237
1449 1446 1442 1438 1434 1430 1426 1422 1416 1410 1404 1399 1393 1386 1378 1371 1366 1359 1352 1344 1339 1335 1329 1323 1317 1310 1304 1299 1293 1288 1282 1277 1272 1267 1263 1259 1255 1251 1247 1244 1241 1238 1236 1234
1443 1440 1436 1432 1427 1422 1418 1414 1408 1402 1396 1390 1385 1379 1372 1364 1358 1352 1346 1341 1333 1328 1322 1316 1310 1304 1299 1293 1287 1282 1277 1272 1267 1263 1259 1255 1251 1248 1244 1241 1238 1236 1234 1232
1437 1433 1429 1424 1420 1414 1408 1404 1399 1394 1388 1383 1377 1371 1365 1359 1353 1346 1338 1333 1328 1322 1317 1310 1304 1298 1293 1287 1282 1277 1272 1267 1263 1259 1256 1252 1248 1245 1241 1238 1236 1234 1232 1231
1429 1424 1420 1416 1411 1405 1399 1394 1390 1386 1381 1375 1370 1365 1359 1352 1345 1341 1335 1328 1322 1317 1310 1304 1299 1293 1288 1282 1277 1272 1268 1263 1260 1256 1252 1248 1245 1242 1239 1236 1234 1232 1231 1230
1420 1416 1411 1407 1402 1397 1392 1387 1382 1377 1372 1367 1362 1358 1353 1347 1341 1334 1328 1322 1316 1310 1304 1299 1294 1288 1283 1277 1273 1268 1264 1260 1256 1253 1249 1245 1242 1239 1237 1234 1233 1231 1230 1229
1411 1407 1402 1398 1394 1389 1385 1380 1375 1370 1365 1359 1354 1350 1345 1340 1334 1328 1322 1316 1310 1305 1299 1293 1288 1283 1278 1273 1269 1265 1260 1257 1253 1249 1246 1243 1240 1237 1235 1233 1232 1230 1229 1229
1401 1397 1393 1389 1385 1382 1378 1374 1369 1364 1359 1354 1348 1343 1338 1333 1327 1322 1316 1310 1305 1300 1294 1289 1284 1279 1274 1269 1265 1261 1257 1254 1250 1247 1244 1241 1238 1236 1234 1233 1231 1230 1229 1229